Regional Weather Roundup
Issued by NWS Green Bay, WI

Home | Current Version | Previous Version | Graphics & Text | Print | Product List | Glossary Off
Versions: 1 2 3 4 5 6 7 8 9 10 11 12 13 14 15 16 17 18 19 20 21 22 23 24 25 26 27 28 29 30 31 32 33 34 35 36 37 38 39 40 41 42 43 44 45 46 47 48 49 50

000
ASUS43 KGRB 270411
RWRGRB

NORTH-CENTRAL AND NORTHEAST WISCONSIN REGIONAL WEATHER ROUNDUP
NATIONAL WEATHER SERVICE GREEN BAY WI
1100 PM CDT FRI AUG 26 2016

WIZ005-009-010>012-018-019-270500-
NORTH CENTRAL WISCONSIN

CITY           SKY/WX    TMP DP  RH WIND       PRES   REMARKS
IRONWOOD       PTCLDY    52  51  97 CALM      30.17R
MANITOWISH WTR PTCLDY    50  50 100 CALM      30.18R
ARBOR VITAE    MOCLDY    55  52  92 CALM      30.19R
EAGLE RIVER    PTCLDY    51  51 100 CALM      30.18S FOG
LAND O LAKES   PTCLDY    49  49 100 CALM      30.20R
RHINELANDER    MOCLDY    54  54 100 CALM      30.19R
PHILLIPS       CLOUDY    54  54 100 CALM      30.17R
ANTIGO         PTCLDY    57  56  95 CALM      30.18S
TOMAHAWK       CLOUDY    53  52  96 CALM      30.18S
MERRILL        MOCLDY    57  57 100 CALM      30.18S
$$

WIZ013-073-270500-
NORTHEAST WISCONSIN

CITY           SKY/WX    TMP DP  RH WIND       PRES   REMARKS
IRON MOUNTAIN  CLOUDY    55  52  89 CALM      30.16S
MARINETTE      CLOUDY   N/A N/A N/A CALM      30.16S
OCONTO         CLOUDY    60  59  94 CALM      30.14F
$$

WIZ017-030-035>037-045-270500-
CENTRAL WISCONSIN

CITY           SKY/WX    TMP DP  RH WIND       PRES   REMARKS
MEDFORD        CLOUDY    55  55 100 CALM      30.17S
WAUSAU         CLOUDY    62  57  83 CALM      30.16S
MOSINEE        PTCLDY    59  59 100 CALM      30.18S
MARSHFIELD     CLOUDY    61  58  90 CALM      30.16S
WISC RAPIDS    PTCLDY    61  59  93 CALM      30.18S
STEVENS POINT  PTCLDY    59  57  95 CALM      30.18S
WAUPACA        CLOUDY    64  62  93 CALM      30.16S
SHAWANO        CLOUDY    64  58  80 CALM      30.16S
CLINTONVILLE   CLOUDY    61  59  94 CALM      30.15F
WAUTOMA        LGT RAIN  63  61  93 E3        30.16F
$$

WIZ038-039-048-051-270500-
FOX VALLEY

CITY           SKY/WX    TMP DP  RH WIND       PRES   REMARKS
NWS GREEN BAY  MOCLDY    62  62 100 CALM      30.16S
APPLETON       CLOUDY    64  54  68 CALM      30.15F
OSHKOSH        CLOUDY    64  59  83 NW3       30.14F
FOND DU LAC    CLOUDY    63  60  90 SE5       30.14F
$$

WIZ022-050-052-270500-
EAST CENTRAL WISCONSIN

CITY           SKY/WX    TMP DP  RH WIND       PRES   REMARKS
EPHRAIM        FAIR      62  59  90 CALM      30.15S
WASHINGTON ISL NOT AVBL
STURGEON BAY   CLOUDY    62  58  86 S3        30.16F
MANITOWOC      MOCLDY    61  58  90 CALM      30.16F
SHEBOYGAN      PTCLDY    63  58  83 CALM      30.15F
$$

LMZ563-521-522-541>543-270500-
LAKESHORE

STATION/POSITION TIME  TEMP    WIND        PRES    VSBY  WAVE
                       AIR SEA DIR/SP/G                  HT/PER
                 (UTC) (F)     (DEG/KT/KT) (MB)    (MI)  (FT/S)
SHEBOYGAN LKSHOR 0400   67     270/  1/  1 1020.6F
KEWAUNEE LKSHORE 0300   61     220/  1/  1 1021.0R
NORTHPORT PIER   0300   66     180/  2/  5 1021.0R
N MID LAKE BUOY  0350   68 71  330/  2/  2 1020.6F         1
S GREEN BAY BUOY 0300   70 72  250/  8/ 10 1020.5S
SISTER BAY LKSHO 0307   67     210/  8/ 10   N/A
CHAMBERS ISLAND  0300   64        CALM     1021.0R
MENOMINEE LKSHOR 0300   68     330/  4/  4 1020.0R
$$




USA.gov is the U.S. government's official web portal to all federal, state and local government web resources and services.